Weather History for KOPM - December, 2012

Change the Weather History Date:

Sunday, December 9, 2012

  Actual Average Record
Temperature  
Mean Temperature 74 °F -  
Max Temperature 75 °F - - ()
Min Temperature 73 °F - - ()
Cooling Degree Days 9    
Growing Degree Days 24 (Base 50)    
Moisture  
Dew Point 71 °F    
Average Humidity 89    
Maximum Humidity 94    
Minimum Humidity 83    
Precipitation  
Precipitation 0.00 in - - ()
Sea Level Pressure  
Sea Level Pressure 29.84 in    
Wind  
Wind Speed 15 mph (SE)    
Max Wind Speed 21 mph    
Max Gust Speed -    
Visibility 6 miles    
Events      
T = Trace of Precipitation, MM = Missing Value Source: NWS Daily Summary

Daily Weather History Graph

Daily Weather History Graph

Search for Another Location

Airport or City:

Trip Planner

Search our weather history database for the weather conditions in past years. The results will help you decide how hot, cold, wet, or windy it might be!

Date:

Astronomy

Dec. 09, 2012 Rise Set
Actual Time 7:05 AM CST 5:35 PM CST
Civil Twilight 6:40 AM CST 6:00 PM CST
Nautical Twilight 6:11 AM CST 6:29 PM CST
Astronomical Twilight 5:42 AM CST 6:57 PM CST
Moon 2:56 AM CST (12/9) 2:29 PM CST (12/9)
Length of Visible Light 11h 20m
Length of Day
10h 29m
Waning Crescent, 18% of the Moon is Illuminated
Dec 9
Waning Crescent
Dec 13
New
Dec 19
First Quarter
Dec 28
Full
Jan 4
Last Quarter

Hourly Weather History & Observations

Time (CST) Temp. Dew Point Humidity Pressure Visibility Wind Dir Wind Speed Gust Speed Precip Events Conditions
12:15 AM 73.4 °F 69.8 °F 88% 29.86 in 10.0 mi SE 16.1 mph - N/A   Clear
12:35 AM 73.4 °F 69.8 °F 88% 29.86 in 10.0 mi SE 15.0 mph - N/A   Clear
1:15 AM 73.4 °F 69.8 °F 88% 29.86 in 10.0 mi SE 15.0 mph - N/A   Clear
1:35 AM 73.4 °F 69.8 °F 88% 29.85 in 10.0 mi SE 15.0 mph - N/A   Clear
1:55 AM 73.4 °F 69.8 °F 88% 29.84 in 9.0 mi SE 15.0 mph - N/A   Clear
2:15 AM 73.4 °F 69.8 °F 88% 29.84 in 7.0 mi SE 13.8 mph - N/A   Clear
2:35 AM 73.4 °F 69.8 °F 88% 29.83 in 7.0 mi SE 15.0 mph - N/A   Clear
2:55 AM 73.4 °F 69.8 °F 88% 29.84 in 6.0 mi SE 15.0 mph - N/A   Clear
3:15 AM 73.4 °F 69.8 °F 88% 29.83 in 6.0 mi SSE 15.0 mph - N/A   Clear
3:35 AM 73.4 °F 69.8 °F 88% 29.83 in 5.0 mi SE 15.0 mph - N/A   Clear
3:55 AM 73.4 °F 69.8 °F 88% 29.84 in 5.0 mi SSE 13.8 mph - N/A   Clear
4:15 AM 73.4 °F 69.8 °F 88% 29.83 in 5.0 mi SSE 15.0 mph - N/A   Partly Cloudy
4:35 AM 73.4 °F 69.8 °F 88% 29.83 in 4.0 mi SSE 13.8 mph - N/A   Partly Cloudy
4:55 AM 73.4 °F 71.6 °F 94% 29.83 in 4.0 mi SSE 15.0 mph - N/A   Mostly Cloudy
5:15 AM 73.4 °F 71.6 °F 94% 29.83 in 5.0 mi SSE 15.0 mph - N/A   Partly Cloudy
5:35 AM 73.4 °F 71.6 °F 94% 29.83 in 5.0 mi SSE 16.1 mph - N/A   Clear
5:55 AM 73.4 °F 71.6 °F 94% 29.84 in 5.0 mi SSE 16.1 mph - N/A   Partly Cloudy
6:15 AM 73.4 °F 71.6 °F 94% 29.85 in 5.0 mi SSE 15.0 mph - N/A   Scattered Clouds
6:35 AM 73.4 °F 69.8 °F 88% 29.85 in 5.0 mi SSE 17.3 mph - N/A   Partly Cloudy
6:55 AM 73.4 °F 69.8 °F 88% 29.86 in 5.0 mi SSE 15.0 mph - N/A   Clear
7:15 AM 73.4 °F 71.6 °F 94% 29.86 in 3.0 mi SSE 15.0 mph - N/A   Clear
7:35 AM 73.4 °F 71.6 °F 94% 29.87 in 3.0 mi SSE 16.1 mph - N/A   Partly Cloudy
7:55 AM 73.4 °F 71.6 °F 94% 29.87 in 3.0 mi SSE 13.8 mph - N/A   Clear
8:35 AM 73.4 °F 71.6 °F 94% 29.88 in 3.0 mi SE 13.8 mph - N/A   Partly Cloudy
8:55 AM 73.4 °F 71.6 °F 94% 29.89 in 4.0 mi SSE 13.8 mph - N/A   Clear
9:15 AM 73.4 °F 71.6 °F 94% 29.90 in 4.0 mi SSE 13.8 mph - N/A   Clear
9:35 AM 73.4 °F 71.6 °F 94% 29.90 in 4.0 mi SE 12.7 mph - N/A   Clear
9:55 AM 73.4 °F 71.6 °F 94% 29.91 in 3.0 mi SSE 10.4 mph - N/A   Clear
10:15 AM 73.4 °F 71.6 °F 94% 29.92 in 4.0 mi SSE 9.2 mph - N/A   Clear
10:35 AM 73.4 °F 69.8 °F 88% 29.92 in 4.0 mi SSE 9.2 mph - N/A   Clear
10:55 AM 73.4 °F 69.8 °F 88% 29.91 in 4.0 mi SE 10.4 mph - N/A   Clear
11:15 AM 73.4 °F 69.8 °F 88% 29.91 in 3.0 mi SE 10.4 mph - N/A   Clear
11:35 AM 73.4 °F 69.8 °F 88% 29.90 in 4.0 mi SSE 11.5 mph - N/A   Clear
11:55 AM 73.4 °F 69.8 °F 88% 29.89 in 4.0 mi SSE 11.5 mph - N/A   Clear
12:15 PM 73.4 °F 69.8 °F 88% 29.87 in 6.0 mi SE 13.8 mph - N/A   Clear
12:35 PM 73.4 °F 69.8 °F 88% 29.86 in 7.0 mi SE 11.5 mph - N/A   Clear
12:55 PM 75.2 °F 69.8 °F 83% 29.85 in 9.0 mi SSE 11.5 mph - N/A   Clear
1:15 PM 75.2 °F 69.8 °F 83% 29.84 in 8.0 mi SE 11.5 mph - N/A   Scattered Clouds
1:35 PM 75.2 °F 69.8 °F 83% 29.83 in 8.0 mi SE 10.4 mph - N/A   Scattered Clouds
1:55 PM 75.2 °F 69.8 °F 83% 29.82 in 8.0 mi SE 12.7 mph - N/A   Scattered Clouds
2:35 PM 75.2 °F 69.8 °F 83% 29.81 in 9.0 mi SE 15.0 mph - N/A   Clear
2:55 PM 75.2 °F 69.8 °F 83% 29.81 in 9.0 mi SE 13.8 mph - N/A   Clear
3:15 PM 75.2 °F 69.8 °F 83% 29.81 in 9.0 mi SE 15.0 mph - N/A   Clear
3:35 PM 75.2 °F 69.8 °F 83% 29.80 in 8.0 mi SE 16.1 mph - N/A   Clear
3:55 PM 75.2 °F 69.8 °F 83% 29.80 in 9.0 mi SE 20.7 mph - N/A   Clear
4:15 PM 75.2 °F 69.8 °F 83% 29.80 in 8.0 mi SE 18.4 mph - N/A   Clear
4:35 PM 75.2 °F 69.8 °F 83% 29.79 in 9.0 mi SE 18.4 mph - N/A   Clear
4:55 PM 75.2 °F 69.8 °F 83% 29.79 in 9.0 mi SE 17.3 mph - N/A   Clear
5:15 PM 75.2 °F 69.8 °F 83% 29.79 in 8.0 mi ESE 17.3 mph - N/A   Clear
5:55 PM 75.2 °F 71.6 °F 89% 29.78 in 8.0 mi ESE 19.6 mph - N/A   Clear
6:15 PM 75.2 °F 71.6 °F 89% 29.79 in 8.0 mi ESE 18.4 mph - N/A   Clear
6:35 PM 75.2 °F 71.6 °F 89% 29.79 in 8.0 mi ESE 16.1 mph - N/A   Clear
6:55 PM 75.2 °F 71.6 °F 89% 29.80 in 8.0 mi SE 17.3 mph - N/A   Clear
7:15 PM 75.2 °F 71.6 °F 89% 29.81 in 7.0 mi SE 15.0 mph - N/A   Clear
7:35 PM 73.4 °F 71.6 °F 94% 29.81 in 7.0 mi SE 15.0 mph - N/A   Clear
7:55 PM 75.2 °F 71.6 °F 89% 29.81 in 7.0 mi SE 15.0 mph - N/A   Clear
8:35 PM 75.2 °F 71.6 °F 89% 29.82 in 6.0 mi SE 13.8 mph - N/A   Clear
8:55 PM 75.2 °F 71.6 °F 89% 29.82 in 7.0 mi SE 13.8 mph - N/A   Clear
9:15 PM 75.2 °F 71.6 °F 89% 29.82 in 6.0 mi SE 16.1 mph - N/A   Clear
9:35 PM 75.2 °F 71.6 °F 89% 29.82 in 7.0 mi SE 16.1 mph - N/A   Clear
9:55 PM 75.2 °F 71.6 °F 89% 29.83 in 7.0 mi SSE 16.1 mph - N/A   Clear
10:15 PM 75.2 °F 71.6 °F 89% 29.83 in 7.0 mi SSE 15.0 mph - N/A   Clear
10:35 PM 75.2 °F 71.6 °F 89% 29.83 in 7.0 mi SE 15.0 mph - N/A   Clear
10:55 PM 73.4 °F 71.6 °F 94% 29.84 in 7.0 mi SE 12.7 mph - N/A   Clear
11:15 PM 73.4 °F 71.6 °F 94% 29.83 in 6.0 mi SE 13.8 mph - N/A   Scattered Clouds
11:35 PM 73.4 °F 71.6 °F 94% 29.82 in 6.0 mi SSE 15.0 mph - N/A   Partly Cloudy
11:55 PM 73.4 °F 71.6 °F 94% 29.83 in 6.0 mi SSE 13.8 mph - N/A   Mostly Cloudy